Winston-Salem, NC

8:04 PM EST on February 18, 2018 (GMT -0500)
Smith Reynolds

Weather History for KINT - October, 2012

Change the Weather History Date:

Wednesday, October 17, 2012

  Actual Average Record
Temperature  
Mean Temperature 58 °F -  
Max Temperature 70 °F 67 °F 83 °F (1984)
Min Temperature 46 °F 47 °F 29 °F (1978)
Degree Days  
Heating Degree Days 7    
Growing Degree Days 8 (Base 50)    
Moisture  
Dew Point 45 °F    
Average Humidity 68    
Maximum Humidity 93    
Minimum Humidity 38    
Precipitation  
Precipitation 0.00 in - - ()
Sea Level Pressure  
Sea Level Pressure 29.95 in    
Wind  
Wind Speed 2 mph (South)    
Max Wind Speed 8 mph    
Max Gust Speed -    
Visibility 10 miles    
Events      
Averages and records for this station are not official NWS values.
T = Trace of Precipitation, MM = Missing Value Source: NWS Daily Summary

Daily Weather History Graph

Daily Weather History Graph

Search for Another Location

Airport or City:

Trip Planner

Search our weather history database for the weather conditions in past years. The results will help you decide how hot, cold, wet, or windy it might be!

Date:

Astronomy

Oct. 17, 2012 Rise Set
Actual Time 7:29 AM EDT 6:41 PM EDT
Civil Twilight 7:04 AM EDT 7:07 PM EDT
Nautical Twilight 6:34 AM EDT 7:37 PM EDT
Astronomical Twilight 6:04 AM EDT 8:07 PM EDT
Moon 9:56 AM EDT (10/17) 8:22 PM EDT (10/17)
Length of Visible Light 12h 03m
Length of Day
11h 11m
Waxing Crescent, 7% of the Moon is Illuminated
Oct 17
Waxing Crescent
Oct 21
First Quarter
Oct 29
Full
Nov 6
Last Quarter
Nov 13
New

Hourly Weather History & Observations

Time (EDT) Temp. Dew Point Humidity Pressure Visibility Wind Dir Wind Speed Gust Speed Precip Events Conditions
12:54 AM 48.9 °F 46.0 °F 90% 29.94 in 10.0 mi Calm Calm - N/A   Clear
1:54 AM 50.0 °F 46.0 °F 86% 29.93 in 10.0 mi Calm Calm - N/A   Clear
2:54 AM 48.9 °F 45.0 °F 86% 29.94 in 10.0 mi Calm Calm - N/A   Clear
3:54 AM 46.9 °F 44.1 °F 90% 29.93 in 10.0 mi Calm Calm - N/A   Clear
4:54 AM 46.0 °F 44.1 °F 93% 29.93 in 10.0 mi Calm Calm - N/A   Clear
5:54 AM 46.0 °F 44.1 °F 93% 29.96 in 10.0 mi Calm Calm - N/A   Clear
6:54 AM 46.9 °F 44.1 °F 90% 29.96 in 10.0 mi Calm Calm - N/A   Clear
7:54 AM 46.0 °F 44.1 °F 93% 29.98 in 10.0 mi Calm Calm - N/A   Clear
8:54 AM 50.0 °F 45.0 °F 83% 29.99 in 10.0 mi Calm Calm - N/A   Clear
9:54 AM 55.0 °F 48.0 °F 77% 30.01 in 10.0 mi Calm Calm - N/A   Clear
10:54 AM 59.0 °F 44.1 °F 58% 30.01 in 10.0 mi South 4.6 mph - N/A   Clear
11:54 AM 64.0 °F 46.0 °F 52% 30.00 in 10.0 mi SW 5.8 mph - N/A   Clear
12:54 PM 68.0 °F 46.0 °F 45% 29.98 in 10.0 mi SW 8.1 mph - N/A   Clear
1:54 PM 68.0 °F 44.1 °F 42% 29.95 in 10.0 mi WSW 8.1 mph - N/A   Clear
2:54 PM 69.1 °F 43.0 °F 39% 29.92 in 10.0 mi South 6.9 mph - N/A   Clear
3:54 PM 70.0 °F 43.0 °F 38% 29.91 in 10.0 mi South 5.8 mph - N/A   Clear
4:54 PM 70.0 °F 43.0 °F 38% 29.91 in 10.0 mi South 6.9 mph - N/A   Clear
5:54 PM 68.0 °F 42.1 °F 39% 29.91 in 10.0 mi South 5.8 mph - N/A   Clear
6:54 PM 62.1 °F 46.0 °F 56% 29.92 in 10.0 mi Calm Calm - N/A   Clear
7:54 PM 60.1 °F 46.0 °F 60% 29.95 in 10.0 mi Calm Calm - N/A   Clear
8:54 PM 57.0 °F 46.9 °F 69% 29.94 in 10.0 mi Calm Calm - N/A   Clear
9:54 PM 55.9 °F 46.9 °F 72% 29.94 in 10.0 mi SSE 3.5 mph - N/A   Clear
10:54 PM 55.0 °F 46.9 °F 74% 29.94 in 10.0 mi Calm Calm - N/A   Clear
11:54 PM 54.0 °F 46.0 °F 75% 29.92 in 10.0 mi SSE 3.5 mph - N/A   Clear